KI1U Weather Reports


time (UTC)temp
C
wind
direction
speed
KPH
gust
KPH
rain 1hr
cm
rain 24hr
cm
rain mn
cm
humidity
%
barometer
mb
20260503054529 7 278 1.6 3.2 0.00 0.13 0.00 55 1009.6
20260503053024 7 286 1.6 4.8 0.00 0.13 0.00 54 1009.8
20260503051528 7 317 1.6 4.8 0.00 0.13 0.00 55 1010.0
20260503050029 8 238 1.6 4.8 0.00 0.13 0.00 54 1010.1
20260503044529 8 275 0.0 3.2 0.00 0.13 0.00 55 1010.1
20260503043020 8 297 0.0 1.6 0.00 0.13 0.00 57 1010.6
20260503041524 8 264 0.0 6.4 0.00 0.13 0.00 57 1010.6
20260503040029 8 277 1.6 8.0 0.00 0.13 0.00 60 1010.5
20260503034528 8 231 1.6 6.4 0.00 0.13 0.13 77 1010.8
20260503033019 8 264 0.0 1.6 0.00 0.13 0.13 89 1010.8
20260503031521 8 279 0.0 0.0 0.00 0.13 0.13 90 1010.8
20260503030024 8 279 0.0 1.6 0.00 0.13 0.13 89 1010.6
20260503024528 8 215 0.0 0.0 0.00 0.13 0.13 89 1010.6
20260503023027 8 215 0.0 0.0 0.00 0.13 0.13 88 1010.7
20260503021519 8 215 0.0 0.0 0.00 0.13 0.13 88 1010.8
20260503020020 8 215 0.0 0.0 0.00 0.13 0.13 87 1010.8
20260503014526 8 215 0.0 0.0 0.00 0.13 0.13 87 1010.9
20260503013036 8 215 0.0 0.0 0.00 0.13 0.13 87 1010.9
20260503011533 8 215 0.0 0.0 0.00 0.13 0.13 86 1011.1
20260503010019 9 215 0.0 0.0 0.00 0.13 0.13 86 1011.0
20260503004522 9 215 0.0 0.0 0.00 0.13 0.13 85 1010.9
20260503003024 9 215 0.0 0.0 0.00 0.13 0.13 85 1010.7
20260503001528 9 215 0.0 0.0 0.00 0.13 0.13 84 1010.6
20260503000028 10 215 0.0 0.0 0.00 0.13 0.13 84 1010.5
20260502234520 10 215 0.0 0.0 0.00 0.13 0.13 84 1010.6
20260502233024 10 215 0.0 0.0 0.00 0.13 0.13 83 1010.6
20260502231527 10 175 0.0 0.0 0.00 0.13 0.13 82 1010.7
20260502230018 10 175 0.0 0.0 0.00 0.13 0.13 82 1010.8
20260502224516 10 175 0.0 0.0 0.00 0.13 0.13 81 1010.7
20260502223020 10 203 0.0 0.0 0.00 0.13 0.13 81 1010.6
20260502221523 10 165 0.0 1.6 0.00 0.13 0.13 81 1010.6
20260502220010 10 235 0.0 1.6 0.00 0.13 0.13 81 1010.5
20260502214515 10 124 0.0 1.6 0.00 0.13 0.13 81 1010.7
20260502213027 10 119 0.0 3.2 0.00 0.13 0.13 81 1010.6
20260502211527 10 77 0.0 4.8 0.00 0.13 0.13 81 1010.6
20260502210031 10 128 0.0 1.6 0.00 0.13 0.13 81 1010.6
20260502204510 10 277 0.0 3.2 0.00 0.13 0.13 81 1010.6
20260502203015 10 129 0.0 3.2 0.00 0.13 0.13 81 1010.6
20260502201522 10 213 0.0 3.2 0.00 0.13 0.13 82 1010.8
20260502200022 10 105 0.0 6.4 0.00 0.13 0.13 82 1010.9
20260502194526 10 229 0.0 4.8 0.00 0.13 0.13 82 1011.1
20260502193012 10 158 1.6 8.0 0.00 0.13 0.13 84 1011.2
20260502191516 10 136 1.6 6.4 0.00 0.13 0.13 84 1011.3
20260502190030 10 112 0.0 8.0 0.00 0.13 0.13 84 1011.5
20260502184525 10 146 0.0 9.7 0.03 0.13 0.13 85 1011.6
20260502183028 10 121 1.6 8.0 0.03 0.13 0.13 85 1011.8
20260502181514 10 167 0.0 3.2 0.05 0.13 0.13 85 1011.8
20260502163030 11 124 0.0 6.4 0.00 0.00 0.00 73 1012.0
20260502161525 11 127 0.0 8.0 0.00 0.00 0.00 74 1012.0
20260502151527 12 243 0.0 4.8 0.00 0.00 0.00 67 1012.1
20260502123030 9 145 0.0 3.2 0.00 0.00 0.00 80 1013.0
20260502121531 8 72 0.0 1.6 0.00 0.00 0.00 81 1013.3
20260502114534 8 208 0.0 3.2 0.00 0.00 0.00 81 1012.8
20260502113029 8 205 0.0 3.2 0.00 0.00 0.00 81 1012.7
20260502111526 7 236 0.0 1.6 0.00 0.00 0.00 82 1012.6
20260502110016 7 236 0.0 1.6 0.00 0.00 0.00 81 1012.4
20260502104503 7 180 0.0 1.6 0.00 0.00 0.00 81 1012.5
20260502103007 7 117 0.0 3.2 0.00 0.00 0.00 81 1012.1
20260502101513 7 240 0.0 0.0 0.00 0.00 0.00 81 1012.0
20260502091508 6 207 0.0 0.0 0.00 0.00 0.00 80 1011.8
20260502071519 7 234 0.0 0.0 0.00 0.00 0.00 73 1011.8
20260502070005 7 233 0.0 0.0 0.00 0.00 0.00 71 1011.8
20260502064521 8 233 0.0 0.0 0.00 0.00 0.00 69 1011.9
20260502063021 8 233 0.0 0.0 0.00 0.00 0.00 67 1012.1